NORTHEAST SUFFOLK  -  Frost Advisory Frost Advisory        NORTHWEST SUFFOLK  -  Frost Advisory Frost Advisory        SOUTHEAST SUFFOLK  -  Frost Advisory Frost Advisory        SOUTHWEST SUFFOLK  -  Frost Advisory Frost Advisory      

Active alerts

Northwest Suffolk
  Details for Northwest Suffolk Frost Advisory
Southwest Suffolk
  Details for Southwest Suffolk Frost Advisory
Northeast Suffolk
  Details for Northeast Suffolk Frost Advisory
Southeast Suffolk
  Details for Southeast Suffolk Frost Advisory


WXM80 ListenWXM80 Stop

You find our weather info also at:

UK Metoffice

WeatherCloud

Weather Underground

Northeastern Weather Network

AWEKAS

Citizen Weather Observer Program (CWOP)

HAMweather, WeatherForYou, PWS Weather


Weather Underground History page Text

Daily Summary for April 21, 2017 Units:  Both    English   Metric
« Previous Day
Next Day »
Daily Weekly Monthly Yearly Custom
  High: Low: Average:
Temperature: 52.0 °F /  11.1 °C 46.7 °F /  8.2 °C 48.4 °F /  9.1 °C
Dew Point: 48.9 °F /  9.4 °C 46.2 °F /  7.9 °C 47.4 °F /  8.6 °C
Humidity: 98 % 88 % 96 %
Wind Speed: 9.5 mph /  15.3 km/h - 4.6 mph /  7.4 km/h
Wind Gust: 12.7 mph /  20.4 km/h - -
Wind:- - ENE
Pressure: 30.04 in /  1017.2 hPa 29.86 in /  1011.1 hPa -
Precipitation: 0.00 in /  0 mm    
Historical Graphs
 
 
Tabular Data for April 21, 2017
Time Temperature Dew Point Pressure Wind Wind Speed Wind Gust Humidity Rainfall Rate (Hourly)
00:03 52.0 °F /  11.1 °C 48.9 °F /  9.4 °C 30.04 in /  1017.2 hPa SE 1.2 mph /  1.9 km/h 6.0 mph /  9.7 km/h 89 % 0.00 in /  0 mm
00:08 51.9 °F /  11.1 °C 48.8 °F /  9.3 °C 30.03 in /  1016.8 hPa ESE 3.8 mph /  6.1 km/h 7.0 mph /  11.3 km/h 89 % 0.00 in /  0 mm
00:13 51.8 °F /  11 °C 48.7 °F /  9.3 °C 30.03 in /  1016.8 hPa ESE 1.9 mph /  3.1 km/h 3.0 mph /  4.8 km/h 89 % 0.00 in /  0 mm
00:18 51.8 °F /  11 °C 48.7 °F /  9.3 °C 30.02 in /  1016.5 hPa ESE 1.0 mph /  1.6 km/h 3.5 mph /  5.6 km/h 89 % 0.00 in /  0 mm
00:23 51.7 °F /  10.9 °C 48.6 °F /  9.2 °C 30.02 in /  1016.5 hPa ESE 2.6 mph /  4.2 km/h 6.9 mph /  11.1 km/h 89 % 0.00 in /  0 mm
00:28 51.7 °F /  10.9 °C 48.6 °F /  9.2 °C 30.02 in /  1016.5 hPa ESE 1.6 mph /  2.6 km/h 4.6 mph /  7.4 km/h 89 % 0.00 in /  0 mm
00:33 51.7 °F /  10.9 °C 48.6 °F /  9.2 °C 30.02 in /  1016.5 hPa SE 0.6 mph /  1 km/h 3.5 mph /  5.6 km/h 89 % 0.00 in /  0 mm
00:38 51.7 °F /  10.9 °C 48.6 °F /  9.2 °C 30.02 in /  1016.5 hPa ESE 1.9 mph /  3.1 km/h 3.5 mph /  5.6 km/h 89 % 0.00 in /  0 mm
00:39 51.7 °F /  10.9 °C 48.6 °F /  9.2 °C 30.02 in /  1016.5 hPa ESE 1.6 mph /  2.6 km/h 3.5 mph /  5.6 km/h 89 % 0.00 in /  0 mm
00:44 51.6 °F /  10.9 °C 48.5 °F /  9.2 °C 30.02 in /  1016.5 hPa East 4.5 mph /  7.2 km/h 6.0 mph /  9.7 km/h 89 % 0.00 in /  0 mm
00:49 51.6 °F /  10.9 °C 48.5 °F /  9.2 °C 30.02 in /  1016.5 hPa East 2.5 mph /  4 km/h 5.0 mph /  8 km/h 89 % 0.00 in /  0 mm
00:54 51.5 °F /  10.8 °C 48.4 °F /  9.1 °C 30.01 in /  1016.1 hPa East 3.4 mph /  5.5 km/h 6.9 mph /  11.1 km/h 89 % 0.00 in /  0 mm
00:59 51.5 °F /  10.8 °C 48.4 °F /  9.1 °C 30.02 in /  1016.5 hPa East 3.5 mph /  5.6 km/h 6.9 mph /  11.1 km/h 89 % 0.00 in /  0 mm
01:04 51.4 °F /  10.8 °C 48.0 °F /  8.9 °C 30.02 in /  1016.5 hPa East 3.3 mph /  5.3 km/h 4.6 mph /  7.4 km/h 88 % 0.00 in /  0 mm
01:09 51.3 °F /  10.7 °C 48.2 °F /  9 °C 30.02 in /  1016.5 hPa East 4.8 mph /  7.7 km/h 8.0 mph /  12.9 km/h 89 % 0.00 in /  0 mm
01:14 51.2 °F /  10.7 °C 48.1 °F /  8.9 °C 30.01 in /  1016.1 hPa East 6.1 mph /  9.8 km/h 9.0 mph /  14.5 km/h 89 % 0.00 in /  0 mm
01:19 51.1 °F /  10.6 °C 47.7 °F /  8.7 °C 30.01 in /  1016.1 hPa East 4.3 mph /  6.9 km/h 5.8 mph /  9.3 km/h 88 % 0.00 in /  0 mm
01:24 51.0 °F /  10.6 °C 47.9 °F /  8.8 °C 30.00 in /  1015.8 hPa East 2.7 mph /  4.3 km/h 6.0 mph /  9.7 km/h 89 % 0.00 in /  0 mm
01:29 51.0 °F /  10.6 °C 47.9 °F /  8.8 °C 30.00 in /  1015.8 hPa East 4.2 mph /  6.8 km/h 5.8 mph /  9.3 km/h 89 % 0.00 in /  0 mm
01:34 50.8 °F /  10.4 °C 47.7 °F /  8.7 °C 29.99 in /  1015.5 hPa East 3.6 mph /  5.8 km/h 6.9 mph /  11.1 km/h 89 % 0.00 in /  0 mm
01:39 50.7 °F /  10.4 °C 47.6 °F /  8.7 °C 29.99 in /  1015.5 hPa East 2.3 mph /  3.7 km/h 5.8 mph /  9.3 km/h 89 % 0.00 in /  0 mm
01:44 50.7 °F /  10.4 °C 47.6 °F /  8.7 °C 29.99 in /  1015.5 hPa East 3.1 mph /  5 km/h 6.0 mph /  9.7 km/h 89 % 0.00 in /  0 mm
01:49 50.6 °F /  10.3 °C 47.5 °F /  8.6 °C 30.02 in /  1016.5 hPa SSE 2.6 mph /  4.2 km/h 3.5 mph /  5.6 km/h 89 % 0.00 in /  0 mm
01:54 50.5 °F /  10.3 °C 47.4 °F /  8.6 °C 30.01 in /  1016.1 hPa SSE 0.7 mph /  1.1 km/h 3.5 mph /  5.6 km/h 89 % 0.00 in /  0 mm
02:00 50.5 °F /  10.3 °C 47.7 °F /  8.7 °C 30.01 in /  1016.1 hPa ESE 1.6 mph /  2.6 km/h 3.5 mph /  5.6 km/h 90 % 0.05 in /  1.27 mm
02:05 50.3 °F /  10.2 °C 47.5 °F /  8.6 °C 30.01 in /  1016.1 hPa SE 1.7 mph /  2.7 km/h 6.0 mph /  9.7 km/h 90 % 0.07 in /  1.78 mm
02:10 50.1 °F /  10.1 °C 47.6 °F /  8.7 °C 30.01 in /  1016.1 hPa Calm   1.2 mph /  1.9 km/h 91 % 0.09 in /  2.29 mm
02:15 50.1 °F /  10.1 °C 47.6 °F /  8.7 °C 30.01 in /  1016.1 hPa Calm     91 % 0.11 in /  2.79 mm
02:20 50.0 °F /  10 °C 47.5 °F /  8.6 °C 30.01 in /  1016.1 hPa SE 0.5 mph /  0.8 km/h 1.2 mph /  1.9 km/h 91 % 0.14 in /  3.56 mm
02:23 49.9 °F /  9.9 °C 47.4 °F /  8.6 °C 30.01 in /  1016.1 hPa Calm     91 % 0.15 in /  3.81 mm
02:28 49.8 °F /  9.9 °C 47.6 °F /  8.7 °C 29.99 in /  1015.5 hPa ENE 2.6 mph /  4.2 km/h 3.5 mph /  5.6 km/h 92 % 0.17 in /  4.32 mm
02:33 49.6 °F /  9.8 °C 47.4 °F /  8.6 °C 29.98 in /  1015.1 hPa East 4.4 mph /  7.1 km/h 5.0 mph /  8 km/h 92 % 0.18 in /  4.57 mm
02:38 49.4 °F /  9.7 °C 47.5 °F /  8.6 °C 29.97 in /  1014.8 hPa East 5.4 mph /  8.7 km/h 6.9 mph /  11.1 km/h 93 % 0.19 in /  4.83 mm
02:43 49.3 °F /  9.6 °C 47.4 °F /  8.6 °C 29.97 in /  1014.8 hPa East 3.7 mph /  6 km/h 5.8 mph /  9.3 km/h 93 % 0.19 in /  4.83 mm
02:48 49.1 °F /  9.5 °C 47.2 °F /  8.4 °C 29.97 in /  1014.8 hPa East 4.5 mph /  7.2 km/h 6.9 mph /  11.1 km/h 93 % 0.19 in /  4.83 mm
02:53 49.0 °F /  9.4 °C 47.3 °F /  8.5 °C 29.96 in /  1014.4 hPa East 3.1 mph /  5 km/h 4.6 mph /  7.4 km/h 94 % 0.19 in /  4.83 mm
02:58 48.9 °F /  9.4 °C 47.2 °F /  8.4 °C 29.97 in /  1014.8 hPa East 3.2 mph /  5.1 km/h 6.9 mph /  11.1 km/h 94 % 0.15 in /  3.81 mm
03:03 48.8 °F /  9.3 °C 47.2 °F /  8.4 °C 29.97 in /  1014.8 hPa East 1.7 mph /  2.7 km/h 2.3 mph /  3.7 km/h 94 % 0.13 in /  3.3 mm
03:08 48.8 °F /  9.3 °C 47.2 °F /  8.4 °C 29.97 in /  1014.8 hPa ENE 2.4 mph /  3.9 km/h 3.5 mph /  5.6 km/h 94 % 0.11 in /  2.79 mm
03:13 48.8 °F /  9.3 °C 47.2 °F /  8.4 °C 29.97 in /  1014.8 hPa East 2.3 mph /  3.7 km/h 5.8 mph /  9.3 km/h 94 % 0.08 in /  2.03 mm
03:18 48.7 °F /  9.3 °C 47.3 °F /  8.5 °C 29.97 in /  1014.8 hPa East 2.1 mph /  3.4 km/h 4.6 mph /  7.4 km/h 95 % 0.05 in /  1.27 mm
03:23 48.7 °F /  9.3 °C 47.3 °F /  8.5 °C 29.97 in /  1014.8 hPa East 2.1 mph /  3.4 km/h 4.6 mph /  7.4 km/h 95 % 0.04 in /  1.02 mm
03:28 48.7 °F /  9.3 °C 47.3 °F /  8.5 °C 29.96 in /  1014.4 hPa East 1.6 mph /  2.6 km/h 4.6 mph /  7.4 km/h 95 % 0.02 in /  0.51 mm
03:33 48.7 °F /  9.3 °C 47.3 °F /  8.5 °C 29.96 in /  1014.4 hPa East 2.0 mph /  3.2 km/h 4.6 mph /  7.4 km/h 95 % 0.01 in /  0.25 mm
03:38 48.7 °F /  9.3 °C 47.3 °F /  8.5 °C 29.97 in /  1014.8 hPa East 1.7 mph /  2.7 km/h 3.5 mph /  5.6 km/h 95 % 0.00 in /  0 mm
03:43 48.7 °F /  9.3 °C 47.3 °F /  8.5 °C 29.97 in /  1014.8 hPa East 1.6 mph /  2.6 km/h 2.3 mph /  3.7 km/h 95 % 0.00 in /  0 mm
03:48 48.7 °F /  9.3 °C 47.3 °F /  8.5 °C 29.97 in /  1014.8 hPa East 0.1 mph /  0.2 km/h 1.2 mph /  1.9 km/h 95 % 0.00 in /  0 mm
03:53 48.7 °F /  9.3 °C 47.3 °F /  8.5 °C 29.97 in /  1014.8 hPa East 0.5 mph /  0.8 km/h 2.3 mph /  3.7 km/h 95 % 0.00 in /  0 mm
03:58 48.6 °F /  9.2 °C 47.2 °F /  8.4 °C 29.96 in /  1014.4 hPa East 1.0 mph /  1.6 km/h 2.3 mph /  3.7 km/h 95 % 0.00 in /  0 mm
04:03 48.7 °F /  9.3 °C 47.3 °F /  8.5 °C 29.96 in /  1014.4 hPa East 1.2 mph /  1.9 km/h 3.5 mph /  5.6 km/h 95 % 0.00 in /  0 mm
04:08 48.7 °F /  9.3 °C 47.3 °F /  8.5 °C 29.95 in /  1014.1 hPa East 1.9 mph /  3.1 km/h 4.6 mph /  7.4 km/h 95 % 0.00 in /  0 mm
04:13 48.7 °F /  9.3 °C 47.3 °F /  8.5 °C 29.95 in /  1014.1 hPa East 0.9 mph /  1.4 km/h 2.3 mph /  3.7 km/h 95 % 0.00 in /  0 mm
04:18 48.7 °F /  9.3 °C 47.6 °F /  8.7 °C 29.95 in /  1014.1 hPa East 1.2 mph /  1.9 km/h 3.0 mph /  4.8 km/h 96 % 0.00 in /  0 mm
04:23 48.7 °F /  9.3 °C 47.6 °F /  8.7 °C 29.95 in /  1014.1 hPa East 1.4 mph /  2.3 km/h 2.3 mph /  3.7 km/h 96 % 0.00 in /  0 mm
04:28 48.7 °F /  9.3 °C 47.6 °F /  8.7 °C 29.95 in /  1014.1 hPa East 2.7 mph /  4.3 km/h 4.6 mph /  7.4 km/h 96 % 0.00 in /  0 mm
04:33 48.7 °F /  9.3 °C 47.6 °F /  8.7 °C 29.94 in /  1013.8 hPa East 2.9 mph /  4.7 km/h 4.6 mph /  7.4 km/h 96 % 0.00 in /  0 mm
04:38 48.7 °F /  9.3 °C 47.6 °F /  8.7 °C 29.95 in /  1014.1 hPa East 1.1 mph /  1.8 km/h 2.3 mph /  3.7 km/h 96 % 0.00 in /  0 mm
04:43 48.8 °F /  9.3 °C 47.7 °F /  8.7 °C 29.95 in /  1014.1 hPa East 1.5 mph /  2.4 km/h 3.5 mph /  5.6 km/h 96 % 0.00 in /  0 mm
04:48 48.8 °F /  9.3 °C 47.7 °F /  8.7 °C 29.95 in /  1014.1 hPa ESE 1.7 mph /  2.7 km/h 3.5 mph /  5.6 km/h 96 % 0.00 in /  0 mm
04:53 48.8 °F /  9.3 °C 47.7 °F /  8.7 °C 29.95 in /  1014.1 hPa ESE 0.8 mph /  1.3 km/h 2.3 mph /  3.7 km/h 96 % 0.00 in /  0 mm
04:58 48.8 °F /  9.3 °C 47.7 °F /  8.7 °C 29.95 in /  1014.1 hPa East 0.4 mph /  0.6 km/h 1.2 mph /  1.9 km/h 96 % 0.00 in /  0 mm
05:03 48.8 °F /  9.3 °C 47.7 °F /  8.7 °C 29.95 in /  1014.1 hPa ENE 1.5 mph /  2.4 km/h 3.5 mph /  5.6 km/h 96 % 0.00 in /  0 mm
05:08 48.8 °F /  9.3 °C 47.7 °F /  8.7 °C 29.94 in /  1013.8 hPa ENE 2.5 mph /  4 km/h 4.0 mph /  6.4 km/h 96 % 0.00 in /  0 mm
05:13 48.8 °F /  9.3 °C 47.7 °F /  8.7 °C 29.94 in /  1013.8 hPa East 2.7 mph /  4.3 km/h 4.6 mph /  7.4 km/h 96 % 0.00 in /  0 mm
05:18 48.8 °F /  9.3 °C 47.7 °F /  8.7 °C 29.94 in /  1013.8 hPa East 2.1 mph /  3.4 km/h 3.5 mph /  5.6 km/h 96 % 0.00 in /  0 mm
05:23 48.8 °F /  9.3 °C 47.7 °F /  8.7 °C 29.94 in /  1013.8 hPa ENE 2.5 mph /  4 km/h 4.0 mph /  6.4 km/h 96 % 0.00 in /  0 mm
05:28 48.7 °F /  9.3 °C 47.6 °F /  8.7 °C 29.94 in /  1013.8 hPa East 2.9 mph /  4.7 km/h 3.5 mph /  5.6 km/h 96 % 0.00 in /  0 mm
05:33 48.7 °F /  9.3 °C 47.6 °F /  8.7 °C 29.93 in /  1013.4 hPa East 2.2 mph /  3.5 km/h 3.5 mph /  5.6 km/h 96 % 0.00 in /  0 mm
05:38 48.6 °F /  9.2 °C 47.5 °F /  8.6 °C 29.94 in /  1013.8 hPa ENE 1.8 mph /  2.9 km/h 3.5 mph /  5.6 km/h 96 % 0.00 in /  0 mm
05:44 48.6 °F /  9.2 °C 47.5 °F /  8.6 °C 29.94 in /  1013.8 hPa ENE 2.9 mph /  4.7 km/h 4.6 mph /  7.4 km/h 96 % 0.00 in /  0 mm
05:49 48.6 °F /  9.2 °C 47.5 °F /  8.6 °C 29.94 in /  1013.8 hPa ENE 2.8 mph /  4.5 km/h 3.5 mph /  5.6 km/h 96 % 0.00 in /  0 mm
05:54 48.5 °F /  9.2 °C 47.4 °F /  8.6 °C 29.94 in /  1013.8 hPa ENE 2.4 mph /  3.9 km/h 4.6 mph /  7.4 km/h 96 % 0.00 in /  0 mm
05:59 48.4 °F /  9.1 °C 47.3 °F /  8.5 °C 29.94 in /  1013.8 hPa East 1.6 mph /  2.6 km/h 3.5 mph /  5.6 km/h 96 % 0.00 in /  0 mm
06:04 48.4 °F /  9.1 °C 47.3 °F /  8.5 °C 29.96 in /  1014.4 hPa ENE 1.0 mph /  1.6 km/h 2.3 mph /  3.7 km/h 96 % 0.00 in /  0 mm
06:09 48.3 °F /  9.1 °C 47.2 °F /  8.4 °C 29.96 in /  1014.4 hPa ENE 1.1 mph /  1.8 km/h 3.5 mph /  5.6 km/h 96 % 0.00 in /  0 mm
06:14 48.3 °F /  9.1 °C 47.2 °F /  8.4 °C 29.97 in /  1014.8 hPa ENE 0.9 mph /  1.4 km/h 4.0 mph /  6.4 km/h 96 % 0.00 in /  0 mm
06:19 48.2 °F /  9 °C 47.1 °F /  8.4 °C 29.97 in /  1014.8 hPa East 4.9 mph /  7.9 km/h 8.1 mph /  13 km/h 96 % 0.00 in /  0 mm
06:24 48.1 °F /  8.9 °C 47.0 °F /  8.3 °C 29.96 in /  1014.4 hPa ENE 7.8 mph /  12.6 km/h 10.0 mph /  16.1 km/h 96 % 0.00 in /  0 mm
06:29 48.0 °F /  8.9 °C 46.9 °F /  8.3 °C 29.96 in /  1014.4 hPa ENE 7.4 mph /  11.9 km/h 10.4 mph /  16.7 km/h 96 % 0.00 in /  0 mm
06:34 47.9 °F /  8.8 °C 46.8 °F /  8.2 °C 29.96 in /  1014.4 hPa ENE 7.8 mph /  12.6 km/h 9.2 mph /  14.8 km/h 96 % 0.00 in /  0 mm
06:39 47.9 °F /  8.8 °C 46.8 °F /  8.2 °C 29.96 in /  1014.4 hPa ENE 7.0 mph /  11.3 km/h 9.0 mph /  14.5 km/h 96 % 0.00 in /  0 mm
06:44 47.8 °F /  8.8 °C 46.7 °F /  8.2 °C 29.97 in /  1014.8 hPa ENE 8.0 mph /  12.9 km/h 11.5 mph /  18.5 km/h 96 % 0.00 in /  0 mm
06:49 47.8 °F /  8.8 °C 46.7 °F /  8.2 °C 29.96 in /  1014.4 hPa East 5.0 mph /  8 km/h 7.0 mph /  11.3 km/h 96 % 0.00 in /  0 mm
06:54 47.8 °F /  8.8 °C 46.7 °F /  8.2 °C 29.97 in /  1014.8 hPa East 5.4 mph /  8.7 km/h 10.0 mph /  16.1 km/h 96 % 0.00 in /  0 mm
06:59 47.8 °F /  8.8 °C 46.7 °F /  8.2 °C 30.00 in /  1015.8 hPa North 5.0 mph /  8 km/h 6.9 mph /  11.1 km/h 96 % 0.00 in /  0 mm
07:04 47.8 °F /  8.8 °C 47.0 °F /  8.3 °C 29.99 in /  1015.5 hPa NE 6.8 mph /  10.9 km/h 9.2 mph /  14.8 km/h 97 % 0.00 in /  0 mm
07:09 47.7 °F /  8.7 °C 46.9 °F /  8.3 °C 29.97 in /  1014.8 hPa ENE 7.7 mph /  12.4 km/h 11.5 mph /  18.5 km/h 97 % 0.01 in /  0.25 mm
07:14 47.6 °F /  8.7 °C 46.8 °F /  8.2 °C 29.99 in /  1015.5 hPa NE 4.3 mph /  6.9 km/h 10.4 mph /  16.7 km/h 97 % 0.02 in /  0.51 mm
07:19 47.6 °F /  8.7 °C 46.8 °F /  8.2 °C 30.00 in /  1015.8 hPa East 3.3 mph /  5.3 km/h 9.2 mph /  14.8 km/h 97 % 0.03 in /  0.76 mm
07:24 47.5 °F /  8.6 °C 46.4 °F /  8 °C 29.99 in /  1015.5 hPa East 8.7 mph /  14 km/h 11.5 mph /  18.5 km/h 96 % 0.06 in /  1.52 mm
07:29 47.4 °F /  8.6 °C 46.6 °F /  8.1 °C 29.99 in /  1015.5 hPa ENE 7.2 mph /  11.6 km/h 12.7 mph /  20.4 km/h 97 % 0.08 in /  2.03 mm
07:34 47.4 °F /  8.6 °C 46.6 °F /  8.1 °C 29.99 in /  1015.5 hPa ENE 9.5 mph /  15.3 km/h 12.0 mph /  19.3 km/h 97 % 0.08 in /  2.03 mm
07:39 47.3 °F /  8.5 °C 46.5 °F /  8.1 °C 29.98 in /  1015.1 hPa ENE 7.8 mph /  12.6 km/h 11.5 mph /  18.5 km/h 97 % 0.08 in /  2.03 mm
07:44 47.4 °F /  8.6 °C 46.6 °F /  8.1 °C 29.97 in /  1014.8 hPa NE 7.4 mph /  11.9 km/h 9.2 mph /  14.8 km/h 97 % 0.09 in /  2.29 mm
07:49 47.4 °F /  8.6 °C 46.6 °F /  8.1 °C 29.98 in /  1015.1 hPa East 5.6 mph /  9 km/h 9.2 mph /  14.8 km/h 97 % 0.09 in /  2.29 mm
07:54 47.5 °F /  8.6 °C 46.7 °F /  8.2 °C 29.98 in /  1015.1 hPa ENE 5.5 mph /  8.9 km/h 8.1 mph /  13 km/h 97 % 0.09 in /  2.29 mm
07:59 47.5 °F /  8.6 °C 46.7 °F /  8.2 °C 29.97 in /  1014.8 hPa East 7.3 mph /  11.7 km/h 9.2 mph /  14.8 km/h 97 % 0.10 in /  2.54 mm
08:04 47.6 °F /  8.7 °C 46.8 °F /  8.2 °C 29.97 in /  1014.8 hPa East 6.0 mph /  9.7 km/h 9.2 mph /  14.8 km/h 97 % 0.10 in /  2.54 mm
08:09 47.5 °F /  8.6 °C 46.7 °F /  8.2 °C 29.97 in /  1014.8 hPa East 5.5 mph /  8.9 km/h 7.0 mph /  11.3 km/h 97 % 0.10 in /  2.54 mm
08:14 47.6 °F /  8.7 °C 46.8 °F /  8.2 °C 29.97 in /  1014.8 hPa East 6.1 mph /  9.8 km/h 7.0 mph /  11.3 km/h 97 % 0.09 in /  2.29 mm
08:19 47.6 °F /  8.7 °C 46.8 °F /  8.2 °C 29.97 in /  1014.8 hPa East 6.1 mph /  9.8 km/h 8.1 mph /  13 km/h 97 % 0.09 in /  2.29 mm
08:24 47.7 °F /  8.7 °C 46.9 °F /  8.3 °C 29.97 in /  1014.8 hPa East 6.3 mph /  10.1 km/h 8.1 mph /  13 km/h 97 % 0.07 in /  1.78 mm
08:29 47.7 °F /  8.7 °C 46.9 °F /  8.3 °C 29.96 in /  1014.4 hPa East 6.5 mph /  10.5 km/h 8.1 mph /  13 km/h 97 % 0.06 in /  1.52 mm
08:34 47.8 °F /  8.8 °C 47.0 °F /  8.3 °C 29.96 in /  1014.4 hPa East 6.4 mph /  10.3 km/h 9.2 mph /  14.8 km/h 97 % 0.07 in /  1.78 mm
08:39 47.8 °F /  8.8 °C 47.0 °F /  8.3 °C 29.95 in /  1014.1 hPa East 6.5 mph /  10.5 km/h 9.2 mph /  14.8 km/h 97 % 0.08 in /  2.03 mm
08:44 47.8 °F /  8.8 °C 47.0 °F /  8.3 °C 29.95 in /  1014.1 hPa East 5.7 mph /  9.2 km/h 8.1 mph /  13 km/h 97 % 0.07 in /  1.78 mm
08:49 47.8 °F /  8.8 °C 47.0 °F /  8.3 °C 29.95 in /  1014.1 hPa East 6.7 mph /  10.8 km/h 9.2 mph /  14.8 km/h 97 % 0.08 in /  2.03 mm
08:54 47.9 °F /  8.8 °C 47.1 °F /  8.4 °C 29.95 in /  1014.1 hPa East 5.2 mph /  8.4 km/h 8.0 mph /  12.9 km/h 97 % 0.09 in /  2.29 mm
08:59 47.9 °F /  8.8 °C 47.1 °F /  8.4 °C 29.95 in /  1014.1 hPa East 3.9 mph /  6.3 km/h 6.9 mph /  11.1 km/h 97 % 0.08 in /  2.03 mm
09:04 47.9 °F /  8.8 °C 47.1 °F /  8.4 °C 29.96 in /  1014.4 hPa NE 2.7 mph /  4.3 km/h 4.6 mph /  7.4 km/h 97 % 0.09 in /  2.29 mm
09:09 48.0 °F /  8.9 °C 47.2 °F /  8.4 °C 29.95 in /  1014.1 hPa ENE 3.0 mph /  4.8 km/h 3.5 mph /  5.6 km/h 97 % 0.08 in /  2.03 mm
09:14 47.9 °F /  8.8 °C 47.1 °F /  8.4 °C 29.95 in /  1014.1 hPa ENE 2.7 mph /  4.3 km/h 3.5 mph /  5.6 km/h 97 % 0.08 in /  2.03 mm
09:19 47.9 °F /  8.8 °C 47.1 °F /  8.4 °C 29.95 in /  1014.1 hPa East 3.6 mph /  5.8 km/h 5.8 mph /  9.3 km/h 97 % 0.07 in /  1.78 mm
09:24 48.0 °F /  8.9 °C 47.2 °F /  8.4 °C 29.95 in /  1014.1 hPa ENE 2.6 mph /  4.2 km/h 3.5 mph /  5.6 km/h 97 % 0.06 in /  1.52 mm
09:29 48.1 °F /  8.9 °C 47.3 °F /  8.5 °C 29.95 in /  1014.1 hPa East 2.7 mph /  4.3 km/h 4.6 mph /  7.4 km/h 97 % 0.05 in /  1.27 mm
09:35 48.1 °F /  8.9 °C 47.3 °F /  8.5 °C 29.95 in /  1014.1 hPa ENE 2.0 mph /  3.2 km/h 3.5 mph /  5.6 km/h 97 % 0.04 in /  1.02 mm
09:40 48.2 °F /  9 °C 47.4 °F /  8.6 °C 29.95 in /  1014.1 hPa ENE 3.6 mph /  5.8 km/h 4.0 mph /  6.4 km/h 97 % 0.03 in /  0.76 mm
09:45 48.1 °F /  8.9 °C 47.3 °F /  8.5 °C 29.95 in /  1014.1 hPa ENE 3.5 mph /  5.6 km/h 4.6 mph /  7.4 km/h 97 % 0.03 in /  0.76 mm
09:50 48.0 °F /  8.9 °C 47.2 °F /  8.4 °C 29.95 in /  1014.1 hPa ENE 5.0 mph /  8 km/h 6.9 mph /  11.1 km/h 97 % 0.02 in /  0.51 mm
09:55 47.8 °F /  8.8 °C 47.0 °F /  8.3 °C 29.95 in /  1014.1 hPa ENE 5.9 mph /  9.5 km/h 8.1 mph /  13 km/h 97 % 0.01 in /  0.25 mm
10:00 47.7 °F /  8.7 °C 46.9 °F /  8.3 °C 29.95 in /  1014.1 hPa ENE 5.4 mph /  8.7 km/h 8.1 mph /  13 km/h 97 % 0.01 in /  0.25 mm
10:05 47.7 °F /  8.7 °C 46.9 °F /  8.3 °C 29.95 in /  1014.1 hPa ENE 5.6 mph /  9 km/h 8.1 mph /  13 km/h 97 % 0.00 in /  0 mm
10:10 47.7 °F /  8.7 °C 46.9 °F /  8.3 °C 29.95 in /  1014.1 hPa ENE 6.8 mph /  10.9 km/h 9.2 mph /  14.8 km/h 97 % 0.00 in /  0 mm
10:15 47.8 °F /  8.8 °C 47.0 °F /  8.3 °C 29.94 in /  1013.8 hPa ENE 6.8 mph /  10.9 km/h 9.2 mph /  14.8 km/h 97 % 0.00 in /  0 mm
10:20 47.8 °F /  8.8 °C 47.0 °F /  8.3 °C 29.94 in /  1013.8 hPa East 5.5 mph /  8.9 km/h 10.4 mph /  16.7 km/h 97 % 0.00 in /  0 mm
10:25 47.8 °F /  8.8 °C 47.0 °F /  8.3 °C 29.94 in /  1013.8 hPa ENE 5.1 mph /  8.2 km/h 8.1 mph /  13 km/h 97 % 0.00 in /  0 mm
10:30 47.9 °F /  8.8 °C 47.1 °F /  8.4 °C 29.93 in /  1013.4 hPa East 4.5 mph /  7.2 km/h 6.9 mph /  11.1 km/h 97 % 0.00 in /  0 mm
10:35 48.0 °F /  8.9 °C 47.5 °F /  8.6 °C 29.93 in /  1013.4 hPa ENE 5.4 mph /  8.7 km/h 9.0 mph /  14.5 km/h 98 % 0.00 in /  0 mm
10:40 48.1 °F /  8.9 °C 47.6 °F /  8.7 °C 29.93 in /  1013.4 hPa NE 6.0 mph /  9.7 km/h 11.5 mph /  18.5 km/h 98 % 0.00 in /  0 mm
10:45 48.0 °F /  8.9 °C 47.5 °F /  8.6 °C 29.94 in /  1013.8 hPa ENE 8.5 mph /  13.7 km/h 11.5 mph /  18.5 km/h 98 % 0.00 in /  0 mm
10:50 48.0 °F /  8.9 °C 47.5 °F /  8.6 °C 29.93 in /  1013.4 hPa East 6.4 mph /  10.3 km/h 9.2 mph /  14.8 km/h 98 % 0.00 in /  0 mm
10:55 48.2 °F /  9 °C 47.7 °F /  8.7 °C 29.92 in /  1013.1 hPa ENE 5.6 mph /  9 km/h 9.2 mph /  14.8 km/h 98 % 0.00 in /  0 mm
11:01 48.3 °F /  9.1 °C 47.5 °F /  8.6 °C 29.92 in /  1013.1 hPa ENE 5.0 mph /  8 km/h 6.9 mph /  11.1 km/h 97 % 0.00 in /  0 mm
11:06 48.4 °F /  9.1 °C 47.9 °F /  8.8 °C 29.92 in /  1013.1 hPa ENE 8.8 mph /  14.2 km/h 11.0 mph /  17.7 km/h 98 % 0.00 in /  0 mm
11:11 48.2 °F /  9 °C 47.7 °F /  8.7 °C 29.92 in /  1013.1 hPa ENE 7.6 mph /  12.2 km/h 11.5 mph /  18.5 km/h 98 % 0.00 in /  0 mm
11:16 48.1 °F /  8.9 °C 47.6 °F /  8.7 °C 29.93 in /  1013.4 hPa NE 5.8 mph /  9.3 km/h 11.5 mph /  18.5 km/h 98 % 0.00 in /  0 mm
11:21 48.1 °F /  8.9 °C 47.6 °F /  8.7 °C 29.92 in /  1013.1 hPa NE 5.9 mph /  9.5 km/h 9.2 mph /  14.8 km/h 98 % 0.00 in /  0 mm
11:26 48.2 °F /  9 °C 47.7 °F /  8.7 °C 29.92 in /  1013.1 hPa ENE 5.2 mph /  8.4 km/h 8.1 mph /  13 km/h 98 % 0.00 in /  0 mm
11:31 48.2 °F /  9 °C 47.7 °F /  8.7 °C 29.92 in /  1013.1 hPa ENE 6.2 mph /  10 km/h 9.2 mph /  14.8 km/h 98 % 0.00 in /  0 mm
11:36 48.3 °F /  9.1 °C 47.8 °F /  8.8 °C 29.91 in /  1012.8 hPa East 5.1 mph /  8.2 km/h 7.0 mph /  11.3 km/h 98 % 0.00 in /  0 mm
11:41 48.3 °F /  9.1 °C 47.8 °F /  8.8 °C 29.92 in /  1013.1 hPa ENE 5.3 mph /  8.5 km/h 6.9 mph /  11.1 km/h 98 % 0.00 in /  0 mm
11:46 48.5 °F /  9.2 °C 48.0 °F /  8.9 °C 29.92 in /  1013.1 hPa East 5.1 mph /  8.2 km/h 6.9 mph /  11.1 km/h 98 % 0.00 in /  0 mm
11:51 48.5 °F /  9.2 °C 48.0 °F /  8.9 °C 29.92 in /  1013.1 hPa ENE 5.0 mph /  8 km/h 10.4 mph /  16.7 km/h 98 % 0.00 in /  0 mm
11:56 48.5 °F /  9.2 °C 48.0 °F /  8.9 °C 29.91 in /  1012.8 hPa ENE 4.9 mph /  7.9 km/h 5.0 mph /  8 km/h 98 % 0.00 in /  0 mm
12:01 48.6 °F /  9.2 °C 48.1 °F /  8.9 °C 29.91 in /  1012.8 hPa East 4.7 mph /  7.6 km/h 6.9 mph /  11.1 km/h 98 % 0.00 in /  0 mm
12:06 48.8 °F /  9.3 °C 48.3 °F /  9.1 °C 29.91 in /  1012.8 hPa East 4.9 mph /  7.9 km/h 7.0 mph /  11.3 km/h 98 % 0.00 in /  0 mm
12:11 49.0 °F /  9.4 °C 48.5 °F /  9.2 °C 29.91 in /  1012.8 hPa East 4.4 mph /  7.1 km/h 5.8 mph /  9.3 km/h 98 % 0.00 in /  0 mm
12:16 49.2 °F /  9.6 °C 48.7 °F /  9.3 °C 29.91 in /  1012.8 hPa ENE 5.4 mph /  8.7 km/h 9.2 mph /  14.8 km/h 98 % 0.00 in /  0 mm
12:21 49.1 °F /  9.5 °C 48.6 °F /  9.2 °C 29.91 in /  1012.8 hPa ENE 6.4 mph /  10.3 km/h 9.2 mph /  14.8 km/h 98 % 0.00 in /  0 mm
12:26 48.9 °F /  9.4 °C 48.4 °F /  9.1 °C 29.91 in /  1012.8 hPa ENE 6.2 mph /  10 km/h 10.4 mph /  16.7 km/h 98 % 0.00 in /  0 mm
12:31 48.7 °F /  9.3 °C 48.2 °F /  9 °C 29.92 in /  1013.1 hPa ENE 7.3 mph /  11.7 km/h 10.4 mph /  16.7 km/h 98 % 0.00 in /  0 mm
12:36 48.7 °F /  9.3 °C 48.2 °F /  9 °C 29.90 in /  1012.4 hPa ENE 7.0 mph /  11.3 km/h 8.1 mph /  13 km/h 98 % 0.00 in /  0 mm
12:41 48.6 °F /  9.2 °C 48.1 °F /  8.9 °C 29.91 in /  1012.8 hPa ENE 6.1 mph /  9.8 km/h 12.7 mph /  20.4 km/h 98 % 0.00 in /  0 mm
12:46 48.7 °F /  9.3 °C 48.2 °F /  9 °C 29.91 in /  1012.8 hPa ENE 6.3 mph /  10.1 km/h 10.4 mph /  16.7 km/h 98 % 0.00 in /  0 mm
12:51 49.0 °F /  9.4 °C 48.5 °F /  9.2 °C 29.90 in /  1012.4 hPa ENE 6.6 mph /  10.6 km/h 9.2 mph /  14.8 km/h 98 % 0.00 in /  0 mm
12:54 49.1 °F /  9.5 °C 48.6 °F /  9.2 °C 29.90 in /  1012.4 hPa NE 6.3 mph /  10.1 km/h 10.4 mph /  16.7 km/h 98 % 0.00 in /  0 mm
12:59 49.2 °F /  9.6 °C 48.7 °F /  9.3 °C 29.91 in /  1012.8 hPa ENE 8.6 mph /  13.8 km/h 12.7 mph /  20.4 km/h 98 % 0.00 in /  0 mm
13:04 49.1 °F /  9.5 °C 48.6 °F /  9.2 °C 29.91 in /  1012.8 hPa ENE 5.8 mph /  9.3 km/h 11.5 mph /  18.5 km/h 98 % 0.00 in /  0 mm
13:09 49.0 °F /  9.4 °C 48.5 °F /  9.2 °C 29.92 in /  1013.1 hPa ENE 8.5 mph /  13.7 km/h 11.0 mph /  17.7 km/h 98 % 0.00 in /  0 mm
13:14 48.7 °F /  9.3 °C 48.2 °F /  9 °C 29.92 in /  1013.1 hPa East 7.2 mph /  11.6 km/h 11.0 mph /  17.7 km/h 98 % 0.00 in /  0 mm
13:20 48.6 °F /  9.2 °C 48.1 °F /  8.9 °C 29.91 in /  1012.8 hPa ENE 8.0 mph /  12.9 km/h 11.5 mph /  18.5 km/h 98 % 0.00 in /  0 mm
13:25 48.6 °F /  9.2 °C 47.8 °F /  8.8 °C 29.92 in /  1013.1 hPa ENE 5.3 mph /  8.5 km/h 10.4 mph /  16.7 km/h 97 % 0.00 in /  0 mm
13:30 48.6 °F /  9.2 °C 47.8 °F /  8.8 °C 29.91 in /  1012.8 hPa East 3.2 mph /  5.1 km/h 9.2 mph /  14.8 km/h 97 % 0.00 in /  0 mm
13:35 48.7 °F /  9.3 °C 48.2 °F /  9 °C 29.91 in /  1012.8 hPa ENE 9.2 mph /  14.8 km/h 11.5 mph /  18.5 km/h 98 % 0.00 in /  0 mm
13:40 48.7 °F /  9.3 °C 48.2 °F /  9 °C 29.90 in /  1012.4 hPa ENE 4.8 mph /  7.7 km/h 9.0 mph /  14.5 km/h 98 % 0.00 in /  0 mm
13:45 48.9 °F /  9.4 °C 48.4 °F /  9.1 °C 29.90 in /  1012.4 hPa East 4.4 mph /  7.1 km/h 8.1 mph /  13 km/h 98 % 0.00 in /  0 mm
13:50 48.9 °F /  9.4 °C 48.4 °F /  9.1 °C 29.90 in /  1012.4 hPa East 5.5 mph /  8.9 km/h 11.5 mph /  18.5 km/h 98 % 0.00 in /  0 mm
13:55 48.8 °F /  9.3 °C 48.3 °F /  9.1 °C 29.90 in /  1012.4 hPa ENE 5.9 mph /  9.5 km/h 8.1 mph /  13 km/h 98 % 0.00 in /  0 mm
14:00 49.0 °F /  9.4 °C 48.5 °F /  9.2 °C 29.90 in /  1012.4 hPa ENE 8.4 mph /  13.5 km/h 10.4 mph /  16.7 km/h 98 % 0.00 in /  0 mm
14:05 48.9 °F /  9.4 °C 48.4 °F /  9.1 °C 29.89 in /  1012.1 hPa East 5.3 mph /  8.5 km/h 10.4 mph /  16.7 km/h 98 % 0.00 in /  0 mm
14:10 48.9 °F /  9.4 °C 48.4 °F /  9.1 °C 29.90 in /  1012.4 hPa ENE 4.8 mph /  7.7 km/h 11.0 mph /  17.7 km/h 98 % 0.00 in /  0 mm
14:15 48.8 °F /  9.3 °C 48.3 °F /  9.1 °C 29.90 in /  1012.4 hPa East 5.8 mph /  9.3 km/h 9.2 mph /  14.8 km/h 98 % 0.00 in /  0 mm
14:20 48.9 °F /  9.4 °C 48.4 °F /  9.1 °C 29.90 in /  1012.4 hPa East 7.5 mph /  12.1 km/h 10.4 mph /  16.7 km/h 98 % 0.00 in /  0 mm
14:25 48.8 °F /  9.3 °C 48.3 °F /  9.1 °C 29.90 in /  1012.4 hPa NE 7.5 mph /  12.1 km/h 12.7 mph /  20.4 km/h 98 % 0.00 in /  0 mm
14:30 48.9 °F /  9.4 °C 48.4 °F /  9.1 °C 29.90 in /  1012.4 hPa ENE 6.7 mph /  10.8 km/h 10.0 mph /  16.1 km/h 98 % 0.00 in /  0 mm
14:35 49.0 °F /  9.4 °C 48.5 °F /  9.2 °C 29.90 in /  1012.4 hPa NE 5.8 mph /  9.3 km/h 10.4 mph /  16.7 km/h 98 % 0.00 in /  0 mm
14:40 49.0 °F /  9.4 °C 48.5 °F /  9.2 °C 29.90 in /  1012.4 hPa ENE 6.5 mph /  10.5 km/h 10.4 mph /  16.7 km/h 98 % 0.00 in /  0 mm
14:45 48.9 °F /  9.4 °C 48.4 °F /  9.1 °C 29.90 in /  1012.4 hPa ENE 6.4 mph /  10.3 km/h 10.4 mph /  16.7 km/h 98 % 0.00 in /  0 mm
14:50 48.8 °F /  9.3 °C 48.3 °F /  9.1 °C 29.90 in /  1012.4 hPa ENE 5.3 mph /  8.5 km/h 9.2 mph /  14.8 km/h 98 % 0.00 in /  0 mm
14:55 48.8 °F /  9.3 °C 48.3 °F /  9.1 °C 29.89 in /  1012.1 hPa NE 6.4 mph /  10.3 km/h 9.2 mph /  14.8 km/h 98 % 0.00 in /  0 mm
15:00 48.9 °F /  9.4 °C 48.4 °F /  9.1 °C 29.89 in /  1012.1 hPa ENE 7.0 mph /  11.3 km/h 9.2 mph /  14.8 km/h 98 % 0.00 in /  0 mm
15:05 48.8 °F /  9.3 °C 48.3 °F /  9.1 °C 29.88 in /  1011.7 hPa ENE 7.3 mph /  11.7 km/h 10.4 mph /  16.7 km/h 98 % 0.00 in /  0 mm
15:10 48.8 °F /  9.3 °C 48.3 °F /  9.1 °C 29.88 in /  1011.7 hPa NE 4.4 mph /  7.1 km/h 8.1 mph /  13 km/h 98 % 0.00 in /  0 mm
15:15 48.9 °F /  9.4 °C 48.4 °F /  9.1 °C 29.88 in /  1011.7 hPa NE 3.3 mph /  5.3 km/h 5.8 mph /  9.3 km/h 98 % 0.00 in /  0 mm
15:20 49.0 °F /  9.4 °C 48.5 °F /  9.2 °C 29.88 in /  1011.7 hPa ENE 4.0 mph /  6.4 km/h 5.8 mph /  9.3 km/h 98 % 0.00 in /  0 mm
15:25 49.0 °F /  9.4 °C 48.5 °F /  9.2 °C 29.87 in /  1011.4 hPa ENE 4.7 mph /  7.6 km/h 8.1 mph /  13 km/h 98 % 0.00 in /  0 mm
15:30 48.9 °F /  9.4 °C 48.4 °F /  9.1 °C 29.87 in /  1011.4 hPa ENE 3.8 mph /  6.1 km/h 7.0 mph /  11.3 km/h 98 % 0.00 in /  0 mm
15:35 48.9 °F /  9.4 °C 48.4 °F /  9.1 °C 29.87 in /  1011.4 hPa ENE 8.0 mph /  12.9 km/h 11.5 mph /  18.5 km/h 98 % 0.00 in /  0 mm
15:40 48.7 °F /  9.3 °C 48.2 °F /  9 °C 29.87 in /  1011.4 hPa East 5.2 mph /  8.4 km/h 9.2 mph /  14.8 km/h 98 % 0.00 in /  0 mm
15:45 48.6 °F /  9.2 °C 48.1 °F /  8.9 °C 29.88 in /  1011.7 hPa NE 5.3 mph /  8.5 km/h 8.1 mph /  13 km/h 98 % 0.00 in /  0 mm
15:50 48.6 °F /  9.2 °C 48.1 °F /  8.9 °C 29.88 in /  1011.7 hPa ENE 3.7 mph /  6 km/h 5.8 mph /  9.3 km/h 98 % 0.00 in /  0 mm
15:55 48.6 °F /  9.2 °C 48.1 °F /  8.9 °C 29.87 in /  1011.4 hPa ENE 4.0 mph /  6.4 km/h 7.0 mph /  11.3 km/h 98 % 0.00 in /  0 mm
16:00 48.7 °F /  9.3 °C 48.2 °F /  9 °C 29.87 in /  1011.4 hPa ENE 3.8 mph /  6.1 km/h 6.9 mph /  11.1 km/h 98 % 0.00 in /  0 mm
16:05 48.5 °F /  9.2 °C 47.7 °F /  8.7 °C 29.87 in /  1011.4 hPa East 3.3 mph /  5.3 km/h 8.1 mph /  13 km/h 97 % 0.00 in /  0 mm
16:10 48.4 °F /  9.1 °C 47.6 °F /  8.7 °C 29.87 in /  1011.4 hPa ENE 8.0 mph /  12.9 km/h 10.4 mph /  16.7 km/h 97 % 0.00 in /  0 mm
16:15 48.4 °F /  9.1 °C 47.6 °F /  8.7 °C 29.86 in /  1011.1 hPa ENE 6.1 mph /  9.8 km/h 8.1 mph /  13 km/h 97 % 0.00 in /  0 mm
16:20 48.5 °F /  9.2 °C 47.7 °F /  8.7 °C 29.87 in /  1011.4 hPa ENE 4.9 mph /  7.9 km/h 6.9 mph /  11.1 km/h 97 % 0.00 in /  0 mm
16:25 48.4 °F /  9.1 °C 47.6 °F /  8.7 °C 29.87 in /  1011.4 hPa ENE 5.9 mph /  9.5 km/h 8.1 mph /  13 km/h 97 % 0.00 in /  0 mm
16:31 48.3 °F /  9.1 °C 47.5 °F /  8.6 °C 29.88 in /  1011.7 hPa ENE 3.7 mph /  6 km/h 8.1 mph /  13 km/h 97 % 0.00 in /  0 mm
16:36 48.2 °F /  9 °C 47.7 °F /  8.7 °C 29.87 in /  1011.4 hPa East 4.3 mph /  6.9 km/h 7.0 mph /  11.3 km/h 98 % 0.00 in /  0 mm
16:37 48.2 °F /  9 °C 47.7 °F /  8.7 °C 29.88 in /  1011.7 hPa ENE 5.7 mph /  9.2 km/h 8.1 mph /  13 km/h 98 % 0.00 in /  0 mm
16:42 48.2 °F /  9 °C 47.7 °F /  8.7 °C 29.88 in /  1011.7 hPa ENE 2.8 mph /  4.5 km/h 9.2 mph /  14.8 km/h 98 % 0.00 in /  0 mm
16:47 48.2 °F /  9 °C 47.7 °F /  8.7 °C 29.88 in /  1011.7 hPa ENE 4.7 mph /  7.6 km/h 8.1 mph /  13 km/h 98 % 0.00 in /  0 mm
16:52 48.2 °F /  9 °C 47.7 °F /  8.7 °C 29.88 in /  1011.7 hPa ENE 4.7 mph /  7.6 km/h 6.9 mph /  11.1 km/h 98 % 0.00 in /  0 mm
16:57 48.2 °F /  9 °C 47.7 °F /  8.7 °C 29.87 in /  1011.4 hPa ENE 5.8 mph /  9.3 km/h 7.0 mph /  11.3 km/h 98 % 0.00 in /  0 mm
17:02 48.2 °F /  9 °C 47.7 °F /  8.7 °C 29.88 in /  1011.7 hPa ENE 6.9 mph /  11.1 km/h 8.1 mph /  13 km/h 98 % 0.00 in /  0 mm
17:03 48.1 °F /  8.9 °C 47.6 °F /  8.7 °C 29.87 in /  1011.4 hPa East 5.4 mph /  8.7 km/h 8.1 mph /  13 km/h 98 % 0.00 in /  0 mm
17:08 48.1 °F /  8.9 °C 47.6 °F /  8.7 °C 29.87 in /  1011.4 hPa East 5.4 mph /  8.7 km/h 7.0 mph /  11.3 km/h 98 % 0.00 in /  0 mm
17:13 48.1 °F /  8.9 °C 47.6 °F /  8.7 °C 29.88 in /  1011.7 hPa ENE 4.5 mph /  7.2 km/h 9.2 mph /  14.8 km/h 98 % 0.00 in /  0 mm
17:18 48.2 °F /  9 °C 47.7 °F /  8.7 °C 29.87 in /  1011.4 hPa ENE 3.4 mph /  5.5 km/h 4.0 mph /  6.4 km/h 98 % 0.00 in /  0 mm
17:21 48.2 °F /  9 °C 47.7 °F /  8.7 °C 29.87 in /  1011.4 hPa ENE 5.9 mph /  9.5 km/h 8.1 mph /  13 km/h 98 % 0.00 in /  0 mm
17:26 48.1 °F /  8.9 °C 47.6 °F /  8.7 °C 29.87 in /  1011.4 hPa NE 4.7 mph /  7.6 km/h 9.2 mph /  14.8 km/h 98 % 0.00 in /  0 mm
17:31 48.1 °F /  8.9 °C 47.6 °F /  8.7 °C 29.87 in /  1011.4 hPa ENE 3.5 mph /  5.6 km/h 10.4 mph /  16.7 km/h 98 % 0.00 in /  0 mm
17:36 48.1 °F /  8.9 °C 47.6 °F /  8.7 °C 29.87 in /  1011.4 hPa ENE 5.6 mph /  9 km/h 9.2 mph /  14.8 km/h 98 % 0.00 in /  0 mm
17:41 48.1 °F /  8.9 °C 47.6 °F /  8.7 °C 29.87 in /  1011.4 hPa NE 4.9 mph /  7.9 km/h 6.9 mph /  11.1 km/h 98 % 0.00 in /  0 mm
17:46 48.0 °F /  8.9 °C 47.5 °F /  8.6 °C 29.87 in /  1011.4 hPa ENE 4.3 mph /  6.9 km/h 8.1 mph /  13 km/h 98 % 0.00 in /  0 mm
17:52 47.9 °F /  8.8 °C 47.4 °F /  8.6 °C 29.88 in /  1011.7 hPa ENE 3.7 mph /  6 km/h 6.9 mph /  11.1 km/h 98 % 0.00 in /  0 mm
17:57 47.9 °F /  8.8 °C 47.4 °F /  8.6 °C 29.88 in /  1011.7 hPa ENE 3.6 mph /  5.8 km/h 9.0 mph /  14.5 km/h 98 % 0.00 in /  0 mm
18:02 47.9 °F /  8.8 °C 47.4 °F /  8.6 °C 29.88 in /  1011.7 hPa ENE 3.9 mph /  6.3 km/h 8.1 mph /  13 km/h 98 % 0.00 in /  0 mm
18:07 47.9 °F /  8.8 °C 47.4 °F /  8.6 °C 29.88 in /  1011.7 hPa ENE 3.0 mph /  4.8 km/h 4.6 mph /  7.4 km/h 98 % 0.00 in /  0 mm
18:12 47.9 °F /  8.8 °C 47.4 °F /  8.6 °C 29.88 in /  1011.7 hPa ENE 3.1 mph /  5 km/h 6.9 mph /  11.1 km/h 98 % 0.00 in /  0 mm
18:17 47.9 °F /  8.8 °C 47.4 °F /  8.6 °C 29.87 in /  1011.4 hPa ENE 4.5 mph /  7.2 km/h 8.1 mph /  13 km/h 98 % 0.00 in /  0 mm
18:22 47.9 °F /  8.8 °C 47.4 °F /  8.6 °C 29.88 in /  1011.7 hPa ENE 5.1 mph /  8.2 km/h 7.0 mph /  11.3 km/h 98 % 0.00 in /  0 mm
18:27 47.8 °F /  8.8 °C 47.3 °F /  8.5 °C 29.88 in /  1011.7 hPa ENE 4.3 mph /  6.9 km/h 9.0 mph /  14.5 km/h 98 % 0.00 in /  0 mm
18:32 47.7 °F /  8.7 °C 47.2 °F /  8.4 °C 29.87 in /  1011.4 hPa ENE 4.0 mph /  6.4 km/h 6.9 mph /  11.1 km/h 98 % 0.00 in /  0 mm
18:37 47.7 °F /  8.7 °C 47.2 °F /  8.4 °C 29.87 in /  1011.4 hPa NE 3.6 mph /  5.8 km/h 5.8 mph /  9.3 km/h 98 % 0.00 in /  0 mm
18:42 47.7 °F /  8.7 °C 47.2 °F /  8.4 °C 29.87 in /  1011.4 hPa East 4.0 mph /  6.4 km/h 6.9 mph /  11.1 km/h 98 % 0.00 in /  0 mm
18:47 47.7 °F /  8.7 °C 47.1 °F /  8.4 °C 29.87 in /  1011.4 hPa ENE 5.0 mph /  8 km/h 8.0 mph /  12.9 km/h 98 % 0.00 in /  0 mm
18:52 47.7 °F /  8.7 °C 47.1 °F /  8.4 °C 29.87 in /  1011.4 hPa ENE 3.0 mph /  4.8 km/h 7.0 mph /  11.3 km/h 98 % 0.00 in /  0 mm
18:57 47.6 °F /  8.7 °C 47.1 °F /  8.4 °C 29.87 in /  1011.4 hPa ENE 3.7 mph /  6 km/h 6.9 mph /  11.1 km/h 98 % 0.00 in /  0 mm
19:02 47.6 °F /  8.7 °C 47.1 °F /  8.4 °C 29.87 in /  1011.4 hPa ENE 3.0 mph /  4.8 km/h 7.0 mph /  11.3 km/h 98 % 0.00 in /  0 mm
19:07 47.6 °F /  8.7 °C 47.1 °F /  8.4 °C 29.88 in /  1011.7 hPa ENE 3.0 mph /  4.8 km/h 9.0 mph /  14.5 km/h 98 % 0.00 in /  0 mm
19:12 47.6 °F /  8.7 °C 47.1 °F /  8.4 °C 29.87 in /  1011.4 hPa ENE 5.0 mph /  8 km/h 10.0 mph /  16.1 km/h 98 % 0.00 in /  0 mm
19:17 47.5 °F /  8.6 °C 47.0 °F /  8.3 °C 29.87 in /  1011.4 hPa ENE 4.0 mph /  6.4 km/h 5.8 mph /  9.3 km/h 98 % 0.00 in /  0 mm
19:22 47.5 °F /  8.6 °C 47.0 °F /  8.3 °C 29.87 in /  1011.4 hPa ENE 5.0 mph /  8 km/h 7.0 mph /  11.3 km/h 98 % 0.00 in /  0 mm
19:27 47.4 °F /  8.6 °C 46.9 °F /  8.3 °C 29.87 in /  1011.4 hPa ENE 6.0 mph /  9.7 km/h 9.0 mph /  14.5 km/h 98 % 0.00 in /  0 mm
19:32 47.4 °F /  8.6 °C 46.9 °F /  8.3 °C 29.87 in /  1011.4 hPa ENE 5.0 mph /  8 km/h 8.0 mph /  12.9 km/h 98 % 0.00 in /  0 mm
19:37 47.3 °F /  8.5 °C 46.8 °F /  8.2 °C 29.88 in /  1011.7 hPa ENE 7.0 mph /  11.3 km/h 9.0 mph /  14.5 km/h 98 % 0.00 in /  0 mm
19:42 47.3 °F /  8.5 °C 46.8 °F /  8.2 °C 29.88 in /  1011.7 hPa ENE 6.0 mph /  9.7 km/h 12.0 mph /  19.3 km/h 98 % 0.00 in /  0 mm
19:47 47.2 °F /  8.4 °C 46.7 °F /  8.2 °C 29.88 in /  1011.7 hPa ENE 7.0 mph /  11.3 km/h 12.0 mph /  19.3 km/h 98 % 0.00 in /  0 mm
19:52 47.2 °F /  8.4 °C 46.7 °F /  8.2 °C 29.88 in /  1011.7 hPa ENE 6.0 mph /  9.7 km/h 10.0 mph /  16.1 km/h 98 % 0.00 in /  0 mm
19:57 47.2 °F /  8.4 °C 46.7 °F /  8.2 °C 29.88 in /  1011.7 hPa ENE 5.2 mph /  8.4 km/h 9.0 mph /  14.5 km/h 98 % 0.00 in /  0 mm
20:02 47.2 °F /  8.4 °C 46.7 °F /  8.2 °C 29.89 in /  1012.1 hPa ENE 5.4 mph /  8.7 km/h 8.0 mph /  12.9 km/h 98 % 0.00 in /  0 mm
20:07 47.2 °F /  8.4 °C 46.7 °F /  8.2 °C 29.89 in /  1012.1 hPa ENE 7.5 mph /  12.1 km/h 10.4 mph /  16.7 km/h 98 % 0.00 in /  0 mm
20:12 47.2 °F /  8.4 °C 46.7 °F /  8.2 °C 29.89 in /  1012.1 hPa ENE 5.2 mph /  8.4 km/h 8.1 mph /  13 km/h 98 % 0.00 in /  0 mm
20:17 47.2 °F /  8.4 °C 46.7 °F /  8.2 °C 29.89 in /  1012.1 hPa East 4.7 mph /  7.6 km/h 9.2 mph /  14.8 km/h 98 % 0.00 in /  0 mm
20:22 47.2 °F /  8.4 °C 46.7 °F /  8.2 °C 29.89 in /  1012.1 hPa ENE 3.3 mph /  5.3 km/h 6.9 mph /  11.1 km/h 98 % 0.00 in /  0 mm
20:27 47.2 °F /  8.4 °C 46.7 °F /  8.2 °C 29.89 in /  1012.1 hPa East 5.1 mph /  8.2 km/h 6.9 mph /  11.1 km/h 98 % 0.00 in /  0 mm
20:32 47.2 °F /  8.4 °C 46.7 °F /  8.2 °C 29.89 in /  1012.1 hPa ENE 6.5 mph /  10.5 km/h 8.1 mph /  13 km/h 98 % 0.00 in /  0 mm
20:37 47.2 °F /  8.4 °C 46.7 °F /  8.2 °C 29.88 in /  1011.7 hPa ENE 5.6 mph /  9 km/h 9.2 mph /  14.8 km/h 98 % 0.00 in /  0 mm
20:42 47.1 °F /  8.4 °C 46.6 °F /  8.1 °C 29.90 in /  1012.4 hPa East 6.3 mph /  10.1 km/h 11.5 mph /  18.5 km/h 98 % 0.00 in /  0 mm
20:47 47.0 °F /  8.3 °C 46.5 °F /  8.1 °C 29.90 in /  1012.4 hPa ENE 8.2 mph /  13.2 km/h 10.4 mph /  16.7 km/h 98 % 0.00 in /  0 mm
20:52 47.0 °F /  8.3 °C 46.5 °F /  8.1 °C 29.90 in /  1012.4 hPa ENE 6.0 mph /  9.7 km/h 10.4 mph /  16.7 km/h 98 % 0.00 in /  0 mm
20:57 46.9 °F /  8.3 °C 46.4 °F /  8 °C 29.90 in /  1012.4 hPa ENE 5.8 mph /  9.3 km/h 11.5 mph /  18.5 km/h 98 % 0.00 in /  0 mm
21:02 46.9 °F /  8.3 °C 46.4 °F /  8 °C 29.90 in /  1012.4 hPa ENE 8.4 mph /  13.5 km/h 11.5 mph /  18.5 km/h 98 % 0.00 in /  0 mm
21:07 46.9 °F /  8.3 °C 46.4 °F /  8 °C 29.90 in /  1012.4 hPa ENE 7.2 mph /  11.6 km/h 10.4 mph /  16.7 km/h 98 % 0.00 in /  0 mm
21:13 46.9 °F /  8.3 °C 46.4 °F /  8 °C 29.90 in /  1012.4 hPa ENE 7.0 mph /  11.3 km/h 12.7 mph /  20.4 km/h 98 % 0.00 in /  0 mm
21:18 47.0 °F /  8.3 °C 46.5 °F /  8.1 °C 29.90 in /  1012.4 hPa ENE 7.1 mph /  11.4 km/h 10.4 mph /  16.7 km/h 98 % 0.00 in /  0 mm
21:23 46.9 °F /  8.3 °C 46.4 °F /  8 °C 29.90 in /  1012.4 hPa ENE 6.7 mph /  10.8 km/h 11.5 mph /  18.5 km/h 98 % 0.00 in /  0 mm
21:28 47.0 °F /  8.3 °C 46.5 °F /  8.1 °C 29.90 in /  1012.4 hPa East 5.9 mph /  9.5 km/h 8.1 mph /  13 km/h 98 % 0.00 in /  0 mm
21:33 47.0 °F /  8.3 °C 46.5 °F /  8.1 °C 29.89 in /  1012.1 hPa East 6.0 mph /  9.7 km/h 8.1 mph /  13 km/h 98 % 0.00 in /  0 mm
21:38 47.0 °F /  8.3 °C 46.5 °F /  8.1 °C 29.90 in /  1012.4 hPa ENE 5.3 mph /  8.5 km/h 6.9 mph /  11.1 km/h 98 % 0.00 in /  0 mm
21:43 47.0 °F /  8.3 °C 46.5 °F /  8.1 °C 29.90 in /  1012.4 hPa East 5.0 mph /  8 km/h 5.8 mph /  9.3 km/h 98 % 0.00 in /  0 mm
21:48 46.9 °F /  8.3 °C 46.4 °F /  8 °C 29.90 in /  1012.4 hPa ENE 6.0 mph /  9.7 km/h 8.1 mph /  13 km/h 98 % 0.00 in /  0 mm
21:53 46.9 °F /  8.3 °C 46.4 °F /  8 °C 29.90 in /  1012.4 hPa ENE 4.9 mph /  7.9 km/h 6.9 mph /  11.1 km/h 98 % 0.00 in /  0 mm
21:58 46.9 °F /  8.3 °C 46.4 °F /  8 °C 29.90 in /  1012.4 hPa ENE 5.2 mph /  8.4 km/h 6.9 mph /  11.1 km/h 98 % 0.00 in /  0 mm
22:03 46.9 °F /  8.3 °C 46.4 °F /  8 °C 29.90 in /  1012.4 hPa East 5.6 mph /  9 km/h 6.9 mph /  11.1 km/h 98 % 0.00 in /  0 mm
22:08 46.9 °F /  8.3 °C 46.4 °F /  8 °C 29.89 in /  1012.1 hPa East 5.9 mph /  9.5 km/h 8.1 mph /  13 km/h 98 % 0.00 in /  0 mm
22:13 46.9 °F /  8.3 °C 46.4 °F /  8 °C 29.89 in /  1012.1 hPa East 4.7 mph /  7.6 km/h 9.2 mph /  14.8 km/h 98 % 0.00 in /  0 mm
22:18 46.9 °F /  8.3 °C 46.4 °F /  8 °C 29.89 in /  1012.1 hPa ENE 4.1 mph /  6.6 km/h 5.8 mph /  9.3 km/h 98 % 0.00 in /  0 mm
22:23 46.8 °F /  8.2 °C 46.3 °F /  7.9 °C 29.90 in /  1012.4 hPa ENE 4.4 mph /  7.1 km/h 5.8 mph /  9.3 km/h 98 % 0.00 in /  0 mm
22:28 46.9 °F /  8.3 °C 46.4 °F /  8 °C 29.90 in /  1012.4 hPa ENE 3.3 mph /  5.3 km/h 5.8 mph /  9.3 km/h 98 % 0.00 in /  0 mm
22:34 46.9 °F /  8.3 °C 46.4 °F /  8 °C 29.90 in /  1012.4 hPa ENE 5.1 mph /  8.2 km/h 5.8 mph /  9.3 km/h 98 % 0.00 in /  0 mm
22:39 46.8 °F /  8.2 °C 46.3 °F /  7.9 °C 29.90 in /  1012.4 hPa NE 3.6 mph /  5.8 km/h 4.6 mph /  7.4 km/h 98 % 0.00 in /  0 mm
22:44 46.8 °F /  8.2 °C 46.3 °F /  7.9 °C 29.90 in /  1012.4 hPa ENE 3.5 mph /  5.6 km/h 9.2 mph /  14.8 km/h 98 % 0.00 in /  0 mm
22:49 46.8 °F /  8.2 °C 46.3 °F /  7.9 °C 29.90 in /  1012.4 hPa ENE 4.5 mph /  7.2 km/h 6.9 mph /  11.1 km/h 98 % 0.00 in /  0 mm
22:54 46.8 °F /  8.2 °C 46.3 °F /  7.9 °C 29.90 in /  1012.4 hPa ENE 4.9 mph /  7.9 km/h 6.9 mph /  11.1 km/h 98 % 0.00 in /  0 mm
22:59 46.7 °F /  8.2 °C 46.2 °F /  7.9 °C 29.90 in /  1012.4 hPa East 4.9 mph /  7.9 km/h 10.4 mph /  16.7 km/h 98 % 0.00 in /  0 mm
23:04 46.7 °F /  8.2 °C 46.2 °F /  7.9 °C 29.90 in /  1012.4 hPa East 5.2 mph /  8.4 km/h 7.0 mph /  11.3 km/h 98 % 0.00 in /  0 mm
23:09 46.7 °F /  8.2 °C 46.2 °F /  7.9 °C 29.90 in /  1012.4 hPa ENE 6.2 mph /  10 km/h 7.0 mph /  11.3 km/h 98 % 0.00 in /  0 mm
23:14 46.8 °F /  8.2 °C 46.3 °F /  7.9 °C 29.90 in /  1012.4 hPa ENE 6.0 mph /  9.7 km/h 10.0 mph /  16.1 km/h 98 % 0.00 in /  0 mm
23:19 46.9 °F /  8.3 °C 46.4 °F /  8 °C 29.90 in /  1012.4 hPa ENE 7.0 mph /  11.3 km/h 10.0 mph /  16.1 km/h 98 % 0.00 in /  0 mm
23:24 46.9 °F /  8.3 °C 46.4 °F /  8 °C 29.91 in /  1012.8 hPa ENE 6.9 mph /  11.1 km/h 11.5 mph /  18.5 km/h 98 % 0.00 in /  0 mm
23:29 47.0 °F /  8.3 °C 46.5 °F /  8.1 °C 29.91 in /  1012.8 hPa ENE 7.5 mph /  12.1 km/h 10.4 mph /  16.7 km/h 98 % 0.00 in /  0 mm
23:34 47.1 °F /  8.4 °C 46.6 °F /  8.1 °C 29.91 in /  1012.8 hPa ENE 3.6 mph /  5.8 km/h 4.6 mph /  7.4 km/h 98 % 0.00 in /  0 mm
23:39 47.1 °F /  8.4 °C 46.6 °F /  8.1 °C 29.91 in /  1012.8 hPa East 5.0 mph /  8 km/h 6.9 mph /  11.1 km/h 98 % 0.00 in /  0 mm
23:44 47.2 °F /  8.4 °C 46.7 °F /  8.2 °C 29.91 in /  1012.8 hPa ENE 3.6 mph /  5.8 km/h 5.8 mph /  9.3 km/h 98 % 0.00 in /  0 mm
23:49 47.2 °F /  8.4 °C 46.7 °F /  8.2 °C 29.91 in /  1012.8 hPa ENE 4.2 mph /  6.8 km/h 5.8 mph /  9.3 km/h 98 % 0.00 in /  0 mm
23:54 47.2 °F /  8.4 °C 46.7 °F /  8.2 °C 29.90 in /  1012.4 hPa ENE 3.9 mph /  6.3 km/h 4.6 mph /  7.4 km/h 98 % 0.00 in /  0 mm
23:59 47.2 °F /  8.4 °C 46.7 °F /  8.2 °C 29.90 in /  1012.4 hPa ENE 4.8 mph /  7.7 km/h 6.9 mph /  11.1 km/h 98 % 0.00 in /  0 mm
Crab Meadow Weather
Compliments of Weather Underground - 3 mb

Script developed by  Jim McMurry - jmcmurry@mwt.net Adapted for the template by  Wim van der Kuil - Leuven-Template.eu

Weather Terms: Heavy Sleet Warning - Accumulations of 1/2 inch or more of sleet.